This is the latest recevied weather packets stored in our database for station/object N1IJV-10. If no packets are shown the sender has not sent any weather packets the latest 10 day(s).
| Time | Temp. | Humidity | Pressure | Rain* | Wind** | Luminosity | Snow |
|---|---|---|---|---|---|---|---|
| 1778174744 | 15.56° C | 43% | 1011.6 hPa | 0 mm | - | 652 W/m² | - |
| 1778174442 | 15° C | 43% | 1012.1 hPa | 0 mm | - | 661 W/m² | - |
| 1778174137 | 15° C | 46% | 1012.4 hPa | 0 mm | - | 541 W/m² | - |
| 1778173835 | 14.44° C | 44% | 1012.3 hPa | 0 mm | - | 390 W/m² | - |
| 1778173531 | 14.44° C | 45% | 1012.8 hPa | 0 mm | - | 404 W/m² | - |
| 1778173228 | 14.44° C | 44% | 1012.5 hPa | 0 mm | - | 525 W/m² | - |
| 1778172924 | 14.44° C | 44% | 1012.7 hPa | 0 mm | - | 442 W/m² | - |
| 1778172621 | 13.89° C | 45% | 1012.7 hPa | 0 mm | - | 476 W/m² | - |
| 1778172317 | 13.89° C | 46% | 1012.5 hPa | 0 mm | - | 457 W/m² | - |
| 1778172014 | 13.33° C | 45% | 1012.7 hPa | 0 mm | - | 490 W/m² | - |
| 1778171711 | 14.44° C | 44% | 1012.9 hPa | 0 mm | - | 298 W/m² | - |
| 1778171409 | 14.44° C | 45% | 1012.9 hPa | 0 mm | - | 421 W/m² | - |
| 1778171103 | 14.44° C | 43% | 1012.8 hPa | 0 mm | - | 494 W/m² | - |
| 1778170801 | 13.89° C | 43% | 1013.1 hPa | 0 mm | - | 603 W/m² | - |
| 1778170497 | 13.89° C | 42% | 1013.4 hPa | 0 mm | - | 660 W/m² | - |
| 1778170194 | 13.89° C | 44% | 1013.5 hPa | 0 mm | - | 663 W/m² | - |
| 1778169890 | 13.33° C | 44% | 1013.4 hPa | 0 mm | - | 707 W/m² | - |
| 1778169585 | 13.33° C | 41% | 1013.5 hPa | 0 mm | - | 744 W/m² | - |
| 1778169282 | 13.33° C | 44% | 1013.3 hPa | 0 mm | - | 374 W/m² | - |
| 1778168979 | 13.33° C | 44% | 1013.7 hPa | 0 mm | - | 599 W/m² | - |
| 1778168675 | 13.33° C | 44% | 1013.5 hPa | 0 mm | - | 752 W/m² | - |
| 1778168373 | 12.78° C | 45% | 1013.4 hPa | 0 mm | - | 742 W/m² | - |
| 1778168069 | 12.78° C | 47% | 1013.7 hPa | 0 mm | - | 726 W/m² | - |
| 1778167766 | 12.78° C | 42% | 1013.8 hPa | 0 mm | - | 714 W/m² | - |
| 1778167462 | 12.22° C | 45% | 1013.8 hPa | 0 mm | - | 695 W/m² | - |
* Rain latest hour (hover to see other rain measurements)
** Current wind speed in m/s (hover to see current wind gust speed)